User: anonymous   Login
Location: Vancouver
(49.2500°N, 123.1330°W)
Time: 18:56:17
(UTC-08:00)
Language:

CZ-2C R/B - Orbit

View from above orbital plane
View from above orbital plane
View from above satellite
View from above satellite

Ground track
Ground track

The orbit data is extracted from the following two-line orbital elements,

1 28480U 04046B   15058.46222159  .00000348  00000-0  14798-3 0  9993
2 28480 098.1211 200.2905 0142317 186.5647 220.2210 14.25453521534451
Epoch (UTC): 27 February 2015 11:05:35
Eccentricity: 0.0142317
inclination: 98.1211°
perigee height: 705 km
apogee height: 909 km
right ascension of ascending node: 200.2905°
argument of perigee: 186.5647°
revolutions per day: 14.25453521
mean anomaly at epoch: 220.2210°
orbit number at epoch: 53445

The dashed part of the orbit path shows where the satellite is in the earth's shadow,  

DLR